Previsão horária em Allensbach

Hoje, 16 Janeiro, Sábado

Tempo Temperatura Precipitação Vento Pressão Humidade
00:00 -6°C° 0 mm 0 m/s 729 mmHg 95%
01:00 -6°C° 0 mm 1 m/s 729 mmHg 96%
02:00 -7°C° 0 mm 0 m/s 729 mmHg 96%
03:00 -7°C° 0 mm 0 m/s 729 mmHg 96%
04:00 -7°C° 0 mm 0 m/s 729 mmHg 96%
05:00 -8°C° 0 mm 0 m/s 729 mmHg 95%
06:00 -8°C° 0 mm 0 m/s 729 mmHg 95%
07:00 -8°C° 0 mm 0 m/s 729 mmHg 96%
08:00 -7°C° 0 mm 0 m/s 729 mmHg 94%
09:00 -7°C° 0 mm 0 m/s 729 mmHg 93%
10:00 -6°C° 0 mm 0 m/s 729 mmHg 92%
11:00 -5°C° 0 mm 0 m/s 728 mmHg 91%
12:00 -2°C° 0 mm 1 m/s 728 mmHg 89%
13:00 -1°C° 0 mm 1 m/s 727 mmHg 88%
14:00 -2°C° 0 mm 1 m/s 727 mmHg 90%
15:00 -2°C° 0 mm 1 m/s 727 mmHg 91%
16:00 -2°C° 0 mm 1 m/s 726 mmHg 93%
17:00 -3°C° 0 mm 1 m/s 726 mmHg 94%
18:00 -4°C° 0 mm 1 m/s 726 mmHg 94%
19:00 -6°C° 0 mm 1 m/s 726 mmHg 95%
20:00 -6°C° 0 mm 1 m/s 725 mmHg 94%
21:00 -4°C° 0 mm 1 m/s 725 mmHg 93%
22:00 -4°C° 0 mm 1 m/s 725 mmHg 93%
23:00 -3°C° 0.1 mm 1 m/s 724 mmHg 93%

Amanhã, 17 Janeiro, Domingo

Tempo Temperatura Precipitação Vento Pressão Humidade
00:00 -3°C° 0.1 mm 1 m/s 724 mmHg 94%
01:00 -3°C° 0.1 mm 1 m/s 723 mmHg 95%
02:00 -2°C° 0.8 mm 1 m/s 723 mmHg 95%
03:00 -2°C° 0.8 mm 1 m/s 722 mmHg 96%
04:00 -1°C° 0.8 mm 1 m/s 721 mmHg 97%
05:00 -3°C° 0.5 mm 2 m/s 721 mmHg 97%
06:00 -2°C° 0.5 mm 2 m/s 721 mmHg 97%
07:00 -2°C° 0.5 mm 2 m/s 721 mmHg 97%
08:00 -1°C° 0.2 mm 3 m/s 721 mmHg 97%
09:00 0°C° 0.2 mm 3 m/s 721 mmHg 98%
10:00 -1°C° 0.2 mm 4 m/s 722 mmHg 98%
11:00 0°C° 0.2 mm 4 m/s 722 mmHg 98%
12:00 0°C° 0.2 mm 4 m/s 722 mmHg 99%
13:00 0°C° 0.2 mm 4 m/s 722 mmHg 99%
14:00 0°C° 0.3 mm 4 m/s 722 mmHg 99%
15:00 +1°C° 0.3 mm 3 m/s 723 mmHg 99%
16:00 +1°C° 0.3 mm 3 m/s 723 mmHg 99%
17:00 0°C° 0.2 mm 3 m/s 724 mmHg 98%
18:00 0°C° 0.2 mm 3 m/s 725 mmHg 98%
19:00 -1°C° 0.2 mm 2 m/s 726 mmHg 97%
20:00 -1°C° 0.1 mm 3 m/s 726 mmHg 97%
21:00 -1°C° 0.1 mm 3 m/s 726 mmHg 97%
22:00 -1°C° 0.1 mm 3 m/s 727 mmHg 97%
23:00 -1°C° 0 mm 3 m/s 727 mmHg 97%

Depois de amanhã, 18 Janeiro, Segunda-feira

Tempo Temperatura Precipitação Vento Pressão Humidade
00:00 -1°C° 0 mm 2 m/s 728 mmHg 96%
01:00 -2°C° 0 mm 2 m/s 728 mmHg 96%
02:00 -2°C° 0 mm 2 m/s 728 mmHg 96%
03:00 -2°C° 0 mm 2 m/s 728 mmHg 96%
04:00 -3°C° 0 mm 2 m/s 728 mmHg 96%
05:00 -3°C° 0.1 mm 2 m/s 729 mmHg 96%
06:00 -1°C° 0.1 mm 1 m/s 729 mmHg 97%
07:00 -2°C° 0.1 mm 1 m/s 729 mmHg 97%
08:00 -1°C° 0 mm 1 m/s 730 mmHg 96%
09:00 -3°C° 0 mm 2 m/s 730 mmHg 96%
10:00 -2°C° 0 mm 2 m/s 730 mmHg 95%
11:00 -2°C° 0 mm 2 m/s 730 mmHg 95%
12:00 -1°C° 0 mm 2 m/s 729 mmHg 94%
13:00 +1°C° 0 mm 2 m/s 729 mmHg 94%
14:00 -1°C° 0 mm 2 m/s 729 mmHg 94%
15:00 +1°C° 0 mm 1 m/s 729 mmHg 93%
16:00 +1°C° 0 mm 1 m/s 729 mmHg 93%
17:00 0°C° 0 mm 1 m/s 729 mmHg 94%
18:00 -1°C° 0 mm 1 m/s 729 mmHg 94%
19:00 -2°C° 0 mm 1 m/s 729 mmHg 94%
20:00 -2°C° 0 mm 1 m/s 729 mmHg 94%
21:00 -3°C° 0 mm 1 m/s 729 mmHg 94%
22:00 -3°C° 0 mm 1 m/s 729 mmHg 94%
23:00 -4°C° 0 mm 1 m/s 728 mmHg 94%

19 Janeiro, Terça-feira

Tempo Temperatura Precipitação Vento Pressão Humidade
00:00 -4°C° 0 mm 1 m/s 728 mmHg 93%
01:00 -4°C° 0 mm 1 m/s 728 mmHg 93%
02:00 -4°C° 0 mm 1 m/s 727 mmHg 92%
03:00 -4°C° 0 mm 1 m/s 726 mmHg 92%
04:00 -4°C° 0 mm 1 m/s 726 mmHg 91%
05:00 -4°C° 0 mm 1 m/s 725 mmHg 90%
06:00 -4°C° 0 mm 1 m/s 725 mmHg 89%
07:00 -4°C° 0 mm 1 m/s 725 mmHg 88%
08:00 -3°C° 0 mm 1 m/s 725 mmHg 87%
09:00 -2°C° 0 mm 1 m/s 724 mmHg 86%
10:00 -1°C° 0 mm 1 m/s 724 mmHg 85%
11:00 0°C° 0 mm 1 m/s 724 mmHg 86%
12:00 -1°C° 0 mm 2 m/s 723 mmHg 86%
13:00 +2°C° 0 mm 2 m/s 723 mmHg 87%
14:00 +2°C° 0 mm 1 m/s 722 mmHg 87%
15:00 +2°C° 0 mm 1 m/s 722 mmHg 87%
16:00 +2°C° 0 mm 1 m/s 721 mmHg 87%
17:00 +1°C° 0 mm 1 m/s 722 mmHg 86%
18:00 0°C° 0 mm 1 m/s 722 mmHg 85%
19:00 -1°C° 0 mm 1 m/s 722 mmHg 84%
20:00 -1°C° 0 mm 1 m/s 722 mmHg 85%
21:00 -2°C° 0 mm 1 m/s 721 mmHg 85%
22:00 -2°C° 0 mm 1 m/s 721 mmHg 85%
23:00 -2°C° 0 mm 1 m/s 721 mmHg 85%

20 Janeiro, Quarta-feira

Tempo Temperatura Precipitação Vento Pressão Humidade
00:00 -2°C° 0 mm 1 m/s 721 mmHg 85%
01:00 -2°C° 0 mm 1 m/s 721 mmHg 85%
02:00 -2°C° 0 mm 1 m/s 720 mmHg 85%
03:00 -2°C° 0 mm 1 m/s 720 mmHg 84%
04:00 -2°C° 0 mm 1 m/s 719 mmHg 84%
05:00 -2°C° 0 mm 1 m/s 719 mmHg 84%
06:00 -2°C° 0 mm 1 m/s 719 mmHg 84%
07:00 -2°C° 0 mm 1 m/s 719 mmHg 83%
08:00 -1°C° 0 mm 1 m/s 718 mmHg 83%
09:00 0°C° 0 mm 1 m/s 718 mmHg 83%
10:00 -1°C° 0 mm 0 m/s 717 mmHg 83%
11:00 0°C° 0 mm 0 m/s 717 mmHg 86%
12:00 +1°C° 0 mm 0 m/s 716 mmHg 89%
13:00 +2°C° 0 mm 0 m/s 716 mmHg 92%
14:00 +2°C° 0 mm 0 m/s 715 mmHg 91%
15:00 +2°C° 0 mm 0 m/s 715 mmHg 91%
16:00 +2°C° 0 mm 0 m/s 714 mmHg 91%
17:00 +1°C° 0 mm 0 m/s 714 mmHg 90%
18:00 0°C° 0 mm 0 m/s 714 mmHg 89%
19:00 -1°C° 0 mm 0 m/s 714 mmHg 88%
20:00 -1°C° 0 mm 0 m/s 713 mmHg 88%
21:00 0°C° 0 mm 1 m/s 713 mmHg 89%
22:00 0°C° 0 mm 1 m/s 713 mmHg 89%
23:00 0°C° 0 mm 1 m/s 713 mmHg 89%

21 Janeiro, Quinta-feira

Tempo Temperatura Precipitação Vento Pressão Humidade
00:00 0°C° 0 mm 1 m/s 713 mmHg 89%
01:00 +1°C° 0 mm 1 m/s 712 mmHg 89%
02:00 +1°C° 0 mm 1 m/s 712 mmHg 89%
03:00 +1°C° 0 mm 1 m/s 712 mmHg 89%
04:00 +1°C° 0 mm 1 m/s 711 mmHg 89%
05:00 +1°C° 0 mm 1 m/s 712 mmHg 89%
06:00 +1°C° 0 mm 1 m/s 712 mmHg 90%
07:00 +1°C° 0 mm 2 m/s 713 mmHg 90%
08:00 +1°C° 0.3 mm 2 m/s 713 mmHg 92%
09:00 +2°C° 0.3 mm 2 m/s 714 mmHg 94%
10:00 +2°C° 0.3 mm 3 m/s 714 mmHg 96%
11:00 +2°C° 0.6 mm 3 m/s 714 mmHg 96%
12:00 +1°C° 0.6 mm 4 m/s 714 mmHg 97%
13:00 +3°C° 0.6 mm 4 m/s 714 mmHg 97%
14:00 +2°C° 0.2 mm 3 m/s 714 mmHg 97%
15:00 +2°C° 0.2 mm 3 m/s 714 mmHg 97%
16:00 +3°C° 0.2 mm 2 m/s 714 mmHg 97%
17:00 +3°C° 0 mm 2 m/s 714 mmHg 96%
18:00 +3°C° 0 mm 1 m/s 714 mmHg 95%
19:00 +3°C° 0 mm 1 m/s 714 mmHg 93%
20:00 +2°C° 0 mm 1 m/s 713 mmHg 93%
21:00 +2°C° 0 mm 1 m/s 713 mmHg 92%
22:00 +2°C° 0 mm 1 m/s 712 mmHg 92%
23:00 +1°C° 0 mm 1 m/s 712 mmHg 92%
Mostrar mais

Necessitamos do seu Consentimento

A Meteoprog e os seus Fornecedores de Serviços podem armazenar e aceder a dados pessoais como cookies, identificadores do dispositivo ou outras tecnologias semelhantes existentes no seu dispositivo e processar estes dados para personalizar conteúdos e anúncios, assim como funcionalidades nas redes sociais e análise de tráfego.

  • Armazenar e/ou aceder a informações no seu dispositivo

    Os cookies, identificadores do dispositivo ou outras informações podem ser armazenados ou acedidos no seu dispositivo, para os fins acima indicados.

  • Anúncios e conteúdos personalizados, medição de anúncios e conteúdos, dados sobre o público-alvo e desenvolvimento de produtos

    Os anúncios e os conteúdos podem ser personalizados com base num perfil. Podem ser adicionados dados adicionais para uma maior personalização dos anúncios e dos conteúdos. A eficácia dos anúncios e dos conteúdos pode ser medida. Podem ser obtidas informações sobre o público que visualizou os anúncios e os conteúdos. Estes dados podem ser usados para desenvolver ou melhorar sistemas, softwares ou a experiência do utilizador.

Ao clicar em "Eu concordo”, permitirá o uso de cookies, identificadores do dispositivo e web beacons mencionados ou outras tecnologias semelhantes. As configurações do navegador do seu dispositivo podem ser alteradas.

Para certos fins, podem ser invocados interesses legítimos ao invés de consentimento. Pode ler mais informação sobre este assunto na nossa Política de Privacidade e Cookies.